Header for Extended Forecast Station List Page

Search by: ID | Name | Date | Parm | Value | Avg | % Avg
Sort by: ID | Name | Date | Parm | Value | Avg | % Avg

Enter search or view all records.

Click on id for station plot
#IDNameDateParmValueAvg% Avg
0LYDM8KOOTENAI-LIBBY DAM05-03-2016INFLOW (KAF)4375570477
1LEOI1KOOTENAI-AT LEONIA05-03-2016DISCHARGE (KAF)3405513066
2BFEI1KOOTENAI-AT BONNERS FERRY05-03-2016STAGE (FT)MMM
3FCFM8NF FLATHEAD-NEAR COLUMBIA FALLS05-03-2016DISCHARGE (KAF)1057148471
4WGCM8MF FLATHEAD-NEAR WEST GLACIER05-03-2016DISCHARGE (KAF)1067143674
5HHWM8SF FLATHEAD-HUNGRY HORSE DAM05-03-2016INFLOW (KAF)1270168775
6CFMM8FLATHEAD-AT COLUMBIA FALLS05-03-2016DISCHARGE (KAF)3181372785
7DLGM8CLARK FORK-AT DEER LODGE05-03-2016DISCHARGE (KAF)396660
8DRMM8CLARK FORK-NR DRUMMOND05-03-2016DISCHARGE (KAF)116MM
9RCCM8ROCK CREEK-NEAR CLINTON05-03-2016DISCHARGE (KAF)18324475
10BONM8BLACKFOOT-NEAR BONNER05-03-2016DISCHARGE (KAF)39372554
11ABOM8CLARK FORK-ABOVE MISSOULA05-03-2016DISCHARGE (KAF)722127757
12BITM8BITTERROOT-NEAR MISSOULA05-03-2016DISCHARGE (KAF)777109771
13BELM8CLARK FORK-BELOW MISSOULA05-03-2016DISCHARGE (KAF)1499240862
14STRM8ST. REGIS-NEAR ST. REGIS05-03-2016DISCHARGE (KAF)10519155
15SRGM8CLARK FORK-AT ST REGIS05-03-2016DISCHARGE (KAF)1995317963
16KERM8FLATHEAD-KERR DAM05-03-2016INFLOW (KAF)3591464777
17NOXM8CLARK FORK-NOXON RAPIDS DAM05-03-2016INFLOW (KAF)5509787970
18CABI1CLARK FORK-CABINET GORGE DAM05-03-2016INFLOW (KAF)6069837772
19PRTI1PRIEST-NEAR PRIEST RIVER05-03-2016DISCHARGE (KAF)62462899
20ALFW1PEND OREILLE-ALBENI FALLS DAM05-03-2016INFLOW (KAF)7087957874
21HOPI1PEND OREILLE-PEND OREILLE LAKE NR HOPE05-03-2016LAKE ELEVATION (FT)MMM
22COEI1COEUR D ALENE-COEUR D ALENE LAKE05-03-2016INFLOW (KAF)898164055
23SPOW1SPOKANE-AT SPOKANE05-03-2016DISCHARGE (KAF)923MM
24LLKW1SPOKANE-AT LONGLAKE05-03-2016INFLOW (KAF)1104211852
25SATI1ST MARIES-NEAR SANTA05-03-2016DISCHARGE (KAF)357745
26SJMI1ST JOE-AT ST MARIES05-03-2016STAGE (FT)MMM
27CIBW1COLUMBIA-AT INTL BOUNDARY05-03-2016DISCHARGE (KAF)29560MM
28LAUW1KETTLE-AT LAURIER05-03-2016DISCHARGE (KAF)1195145382
29GCDW1COLUMBIA-GRAND COULEE DAM05-03-2016INFLOW (KAF)319244125077
30CHJW1COLUMBIA-CHIEF JOSEPH DAM05-03-2016INFLOW (KAF)273903094589
31TONW1OKANOGAN-NEAR TONASKET05-03-2016DISCHARGE (KAF)1322134498
32PATW1METHOW-NEAR PATEROS05-03-2016DISCHARGE (KAF)861766112
33WELW1COLUMBIA-WELLS DAM05-03-2016INFLOW (KAF)296013343689
34CHDW1CHELAN-LAKE CHELAN DAM05-03-2016INFLOW (KAF)966931104
35RRHW1COLUMBIA-ROCKY REACH DAM05-03-2016INFLOW (KAF)306163405890
36ARDW1ENTIAT-NEAR ARDENVOIR05-03-2016DISCHARGE (KAF)200184108
37PESW1WENATCHEE-AT PESHASTIN05-03-2016DISCHARGE (KAF)1034125982
38WANW1COLUMBIA-WANAPUM DAM05-03-2016INFLOW (KAF)316854091877
39PRWW1COLUMBIA-PRIEST RAPIDS DAM05-03-2016INFLOW (KAF)316924181276
40KEDW1YAKIMA-KEECHELUS LAKE05-03-2016INFLOW (KAF)578567
41KADW1KACHESS-KACHESS DAM05-03-2016INFLOW (KAF)507765
42EASW1YAKIMA-AT EASTON05-03-2016DISCHARGE (KAF)10590117
43CLUW1CLE ELUM-CLE ELUM LAKE05-03-2016INFLOW (KAF)21532067
44TNAW1TEANAWAY-BELOW FORKS05-03-2016DISCHARGE (KAF)546880
45UMTW1YAKIMA-AT UMTANUM05-03-2016DISCHARGE (KAF)814810100
46BUDW1BUMPING-BUMPING LAKE DAM05-03-2016INFLOW (KAF)729873
47CLFW1NACHES-NEAR CLIFFDEL05-03-2016DISCHARGE (KAF)25129585
48RILW1TIETON-RIMROCK LAKE NEAR RIMROCK05-03-2016INFLOW (KAF)16617297
49NACW1NACHES-NEAR NACHES05-03-2016DISCHARGE (KAF)41542099
50PARW1YAKIMA-NEAR PARKER05-03-2016DISCHARGE (KAF)339333102
51KIOW1YAKIMA-AT KIONA05-03-2016DISCHARGE (KAF)63866796
52IPDI1HENRYS FORK-ISLAND PARK DAM05-03-2016INFLOW (KAF)13220565
53CHEI1FALL RIVER-NEAR CHESTER05-03-2016DISCHARGE (KAF)18528066
54ANTI1HENRYS FORK-AT ST. ANTHONY05-03-2016DISCHARGE (KAF)39556270
55TEAI1TETON-NEAR ST. ANTHONY05-03-2016DISCHARGE (KAF)28933886
56REXI1HENRYS FORK-AT REXBURG05-03-2016DISCHARGE (KAF)41864864
57JLKW4SNAKE-JACKSON LAKE AT DAM05-03-2016INFLOW (KAF)53374671
58JKSW4SNAKE-NEAR JACKSON05-03-2016DISCHARGE (KAF)1438167386
59ALPW4SNAKE-NEAR ALPINE05-03-2016DISCHARGE (KAF)1708211981
60PLDI1SF SNAKE-PALISADES DAM05-03-2016INFLOW (KAF)2368296080
61HEII1SNAKE-NEAR HEISE05-03-2016DISCHARGE (KAF)2975309596
62RIDI1WILLOW CREEK-RIRIE DAM05-03-2016INFLOW (KAF)2826106
63SIFI1SNAKE-AB EAGLE ROCK NR IDAHO FALLS05-03-2016DISCHARGE (KAF)1915237381
64SHYI1SNAKE-NEAR SHELLEY05-03-2016DISCHARGE (KAF)1695211180
65SNAI1SNAKE-AT BLACKFOOT05-03-2016DISCHARGE (KAF)1075158068
66BFTI1SNAKE-NEAR BLACKFOOT05-03-2016DISCHARGE (KAF)1031145471
67PIHI1PORTNEUF-AT POCATELLO05-03-2016DISCHARGE (KAF)395078
68AFRI1SNAKE-AMERICAN FALLS RESERVOIR05-03-2016INFLOW (KAF)1555207175
69MILI1SNAKE-AT MILNER05-03-2016DISCHARGE (KAF)206182113
70HOTI1BRUNEAU-NEAR HOT SPRINGS05-03-2016DISCHARGE (KAF)153137112
71SWAI1SNAKE-BELOW SWAN FALLS05-03-2016DISCHARGE (KAF)1690207182
72HWRI1BIG LOST-AT HOWELL RANCH NEAR CHILLY05-03-2016DISCHARGE (KAF)14115889
73MACI1BIG LOST-MACKAY RESERVOIR NEAR MACKAY05-03-2016INFLOW (KAF)12015876
74HALI1BIG WOOD-AT HAILEY05-03-2016DISCHARGE (KAF)20221295
75MAGI1BIG WOOD-MAGIC DAM05-03-2016INFLOW (KAF)15416991
76LWRI1LITTLE WOOD-LITTLE WOOD DAM05-03-2016INFLOW (KAF)325955
77OWYO3OWYHEE-OWYHEE DAM05-03-2016INFLOW (KAF)14715098
78ARAI1SF BOISE-ANDERSON RANCH DAM05-03-2016INFLOW (KAF)34140684
79LUCI1BOISE-LUCKY PEAK DAM05-03-2016INFLOW (KAF)1174MM
80BIGI1BOISE-AT GLENWOOD BRIDGE05-03-2016DISCHARGE (KAF)586395148
81PARI1BOISE-NEAR PARMA05-03-2016DISCHARGE (KAF)526343153
82WRMO3MALHEUR-WARM SPRINGS DAM05-03-2016INFLOW (KAF)1412114
83BERO3MALHEUR-AGENCY VALLEY DAM05-03-2016INFLOW (KAF)192286
84BULO3BULLY CREEK-BULLY CREEK DAM05-03-2016INFLOW (KAF)11121
85VALO3MALHEUR-NEAR VALE05-03-2016DISCHARGE (KAF)73519
86CSDI1NF PAYETTE-CASCADE DAM05-03-2016INFLOW (KAF)31738982
87DEDI1DEADWOOD-NEAR LOWMAN05-03-2016INFLOW (KAF)9711882
88EMMI1PAYETTE-NEAR EMMETT05-03-2016DISCHARGE (KAF)889100888
89WSRI1WEISER-NEAR WEISER05-03-2016DISCHARGE (KAF)16323669
90WEII1SNAKE-AT WEISER05-03-2016DISCHARGE (KAF)3442391988
91BRNI1SNAKE-BROWNLEE DAM05-03-2016INFLOW (KAF)3755418190
92WHBI1SALMON-AT WHITEBIRD05-03-2016DISCHARGE (KAF)4269523082
93TRYO3GRANDE RONDE-TROY05-03-2016DISCHARGE (KAF)56387764
94ANAW1SNAKE-NEAR ANATONE05-03-2016DISCHARGE (KAF)87331097180
95ORFI1CLEARWATER-AT OROFINO05-03-2016DISCHARGE (KAF)2662365773
96DWRI1NF CLEARWATER-DWORSHAK DAM05-03-2016INFLOW (KAF)1417199971
97SPDI1CLEARWATER-AT SPALDING05-03-2016DISCHARGE (KAF)4637542286
98LGDW1SNAKE-LOWER GRANITE DAM05-03-2016INFLOW (KAF)133701640282
99LGSW1SNAKE-LITTLE GOOSE DAM05-03-2016INFLOW (KAF)133701643181
100LMNW1SNAKE-LOWER MONUMENTAL DAM05-03-2016INFLOW (KAF)133981647081
101IHDW1SNAKE-ICE HARBOR DAM05-03-2016INFLOW (KAF)133981638082
102TCHW1WALLA WALLA-NEAR TOUCHET05-03-2016DISCHARGE (KAF)255050
103MCDW1COLUMBIA-MCNARY DAM05-03-2016INFLOW (KAF)459175969277
104GIBO3UMATILLA-NEAR GIBBON05-03-2016DISCHARGE (KAF)243863
105PDTO3UMATILLA-AT PENDLETON05-03-2016DISCHARGE (KAF)326350
106MYKO3MCKAY CREEK-NEAR PILOT ROCK05-03-2016DISCHARGE (KAF)065
107UMAO3UMATILLA-NEAR UMATILLA05-03-2016DISCHARGE (KAF)3524147
108MONO3NF JOHN DAY-AT MONUMENT05-03-2016DISCHARGE (KAF)10332931
109SERO3JOHN DAY-AT SERVICE CK05-03-2016DISCHARGE (KAF)16345736
110JDAO3COLUMBIA-JOHN DAY DAM05-03-2016INFLOW (KAF)469516106477
111MODO3DESCHUTES-AT MOODY NR BIGGS05-03-2016DISCHARGE (KAF)1123120893
112TDAO3COLUMBIA-THE DALLES DAM05-03-2016INFLOW (KAF)471555476486
113PITW1KLICKITAT-NEAR PITT05-03-2016DISCHARGE (KAF)384373103
114HODO3HOOD-NEAR TUCKER BRIDGE05-03-2016DISCHARGE (KAF)12215977
115UNDW1WHITE SALMON-NEAR UNDERWOOD05-03-2016DISCHARGE (KAF)262256102
116BONO3COLUMBIA-BONNEVILLE DAM05-03-2016INFLOW (KAF)47947MM